This is the latest recevied weather packets stored in our database for station/object NZ3C. If no packets are shown the sender has not sent any weather packets the latest 10 day(s).
| Time | Temp. | Humidity | Pressure | Rain* | Wind** | Luminosity | Snow |
|---|---|---|---|---|---|---|---|
| 1777655452 | 13.33° C | 63% | 1016.8 hPa | 0 mm | - | 280 W/m² | - |
| 1777655149 | 13.33° C | 64% | 1017.2 hPa | 0 mm | - | 227 W/m² | - |
| 1777654846 | 13.33° C | 64% | 1017.1 hPa | 0 mm | - | 91 W/m² | - |
| 1777654543 | 13.33° C | 61% | 1017.1 hPa | 0 mm | - | 141 W/m² | - |
| 1777654241 | 13.89° C | 61% | 1017.3 hPa | 0 mm | - | 128 W/m² | - |
| 1777653938 | 13.33° C | 62% | 1017.2 hPa | 0 mm | - | 306 W/m² | - |
| 1777653635 | 13.33° C | 63% | 1017 hPa | 0 mm | - | 307 W/m² | - |
| 1777653331 | 12.78° C | 63% | 1017.2 hPa | 0 mm | - | 306 W/m² | - |
| 1777653028 | 12.78° C | 64% | 1017.3 hPa | 0 mm | - | 191 W/m² | - |
| 1777652725 | 13.33° C | 62% | 1017.4 hPa | 0 mm | - | 195 W/m² | - |
| 1777652421 | 13.33° C | 64% | 1017.3 hPa | 0 mm | - | 301 W/m² | - |
| 1777652119 | 12.78° C | 65% | 1017.3 hPa | 0 mm | - | 613 W/m² | - |
| 1777651815 | 12.78° C | 68% | 1017.4 hPa | 0 mm | - | 199 W/m² | - |
| 1777651513 | 12.22° C | 70% | 1017.4 hPa | 0 mm | - | 248 W/m² | - |
| 1777651209 | 11.67° C | 67% | 1017.5 hPa | 0 mm | - | 171 W/m² | - |
| 1777650906 | 11.67° C | 72% | 1017.5 hPa | 0 mm | - | 107 W/m² | - |
| 1777650603 | 11.67° C | 69% | 1017.6 hPa | 0 mm | - | 60 W/m² | - |
| 1777650300 | 11.67° C | 68% | 1017.7 hPa | 0 mm | - | 56 W/m² | - |
| 1777649997 | 11.67° C | 71% | 1017.7 hPa | 0 mm | - | 62 W/m² | - |
| 1777649695 | 12.22° C | 68% | 1018 hPa | 0 mm | - | 68 W/m² | - |
| 1777649390 | 12.22° C | 67% | 1018.1 hPa | 0 mm | - | 63 W/m² | - |
| 1777649088 | 12.22° C | 67% | 1018 hPa | 0 mm | - | 92 W/m² | - |
| 1777648785 | 12.78° C | 65% | 1018 hPa | 0 mm | - | 131 W/m² | - |
| 1777648482 | 12.22° C | 67% | 1018.1 hPa | 0 mm | - | 145 W/m² | - |
| 1777648178 | 12.22° C | 67% | 1017.9 hPa | 0 mm | - | 176 W/m² | - |
* Rain latest hour (hover to see other rain measurements)
** Current wind speed in m/s (hover to see current wind gust speed)